Zurück zum Katalog

STARLINK-34338

AktivKommunikationSSO
NORAD 64151·PAYLOAD·🇺🇸 United States

Gestartet May 27, 2025 von Vandenberg Space Force Base

Loading…

Nächste Überflüge (nächste 24 Stunden)

TLE

AktuellSource: CelesTrak SupGP

Epoche: Sep 15, 2026, 03:53 UTC

1 64151C 25112F   26258.16229167 -.00001659  00000+0 -51484-4 0  2581
2 64151  97.2837 305.2393 0000980  89.9874 342.8973 15.33440607    12

Verfolge STARLINK-34338 in Echtzeit mit AllMySat

Download on the App Store